Kelowna, British Columbia

3:27 PM PDT on April 25, 2018 (GMT -0700)
Kelowna

Weather History for CYLW - October, 2012

Change the Weather History Date:

Thursday, October 4, 2012

  Actual Average Record
Temperature  
Mean Temperature 41 °F -  
Max Temperature 59 °F 51 °F 73 °F (2003)
Min Temperature 23 °F 31 °F 23 °F (2012)
Degree Days  
Heating Degree Days 24    
Moisture  
Dew Point 25 °F    
Average Humidity 57    
Maximum Humidity 93    
Minimum Humidity 17    
Precipitation  
Precipitation 0.00 in 0.03 in - ()
Sea Level Pressure  
Sea Level Pressure 30.42 in    
Wind  
Wind Speed 3 mph ()    
Max Wind Speed 6 mph    
Max Gust Speed -    
Visibility 9.1 miles    
Events      
Averages and records for this station are not official NWS values.
T = Trace of Precipitation, MM = Missing Value Source: Averaged Metar Reports

Daily Weather History Graph

Daily Weather History Graph

Search for Another Location

Airport or City:

Astronomy

Oct. 04, 2012 Rise Set
Actual Time 7:03 AM PDT 6:28 PM PDT
Civil Twilight 6:30 AM PDT 7:00 PM PDT
Nautical Twilight 5:53 AM PDT 7:37 PM PDT
Astronomical Twilight 5:15 AM PDT 8:15 PM PDT
Moon 8:40 PM PDT (10/4) 11:51 AM PDT (10/4)
Length of Visible Light 12h 29m
Length of Day
11h 24m
Waning Gibbous, 81% of the Moon is Illuminated
Oct 4
Waning Gibbous
Oct 8
Last Quarter
Oct 15
New
Oct 21
First Quarter
Oct 29
Full

Hourly Weather History & Observations

Time (PDT) Temp. Windchill Dew Point Humidity Pressure Visibility Wind Dir Wind Speed Gust Speed Precip Events Conditions
12:00 AM 33.8 °F 30.8 °F 24.8 °F 70% 30.43 in 9.0 mi North 3.5 mph - N/A   Clear
1:00 AM 30.2 °F - 23.0 °F 75% 30.43 in 9.0 mi NE 2.3 mph - N/A   Clear
2:00 AM 28.4 °F - 23.0 °F 80% 30.44 in 9.0 mi NE 2.3 mph - N/A   Clear
3:00 AM 28.4 °F - 23.0 °F 80% 30.44 in 9.0 mi Variable 2.3 mph - N/A   Clear
4:00 AM 26.6 °F - 21.2 °F 80% 30.44 in 9.0 mi Variable 2.3 mph - N/A   Clear
5:00 AM 26 °F - 22 °F 78% 30.45 in 10 mi North 3.5 mph - -  
5:00 AM 24.8 °F 20.5 °F 21.2 °F 86% 30.45 in 9.0 mi North 3.5 mph - N/A   Clear
6:00 AM 28.4 °F - 23.0 °F 80% 30.46 in 9.0 mi Variable 2.3 mph - N/A   Clear
7:00 AM 24.8 °F 20.5 °F 23.0 °F 93% 30.47 in 9.0 mi North 3.5 mph - N/A   Clear
8:00 AM 24.8 °F - 21.2 °F 86% 30.49 in 9.0 mi NNE 2.3 mph - N/A   Clear
9:00 AM 39.2 °F - 26.6 °F 61% 30.49 in 9.0 mi Calm Calm - N/A   Clear
10:00 AM 44.6 °F - 26.6 °F 49% 30.47 in 9.0 mi Calm Calm - N/A   Clear
11:00 AM 48 °F - 26 °F 29% 30.46 in 10 mi ENE 5.8 mph - -  
11:00 AM 48.2 °F - 26.6 °F 43% 30.46 in 9.0 mi ENE 3.5 mph - N/A   Clear
12:00 PM 51.8 °F - 28.4 °F 41% 30.44 in 9.0 mi North 5.8 mph - N/A   Clear
1:00 PM 53.6 °F - 28.4 °F 38% 30.42 in 9.0 mi North 4.6 mph - N/A   Clear
2:00 PM 55.4 °F - 26.6 °F 33% 30.40 in 9.0 mi NNE 5.8 mph - N/A   Clear
3:00 PM 57.2 °F - 26.6 °F 31% 30.38 in 9.0 mi Variable 5.8 mph - N/A   Clear
4:00 PM 59.0 °F - 26.6 °F 29% 30.36 in 9.0 mi Variable 2.3 mph - N/A   Clear
5:00 PM 58 °F - 26 °F 17% 30.36 in 10 mi WSW 3.5 mph - -  
5:00 PM 59.0 °F - 24.8 °F 27% 30.36 in 9.0 mi West 4.6 mph - N/A   Clear
7:00 PM 44.6 °F - 28.4 °F 53% 30.38 in 9.0 mi Calm Calm - N/A   Clear
8:00 PM 41.0 °F 39.0 °F 28.4 °F 61% 30.39 in 9.0 mi NE 3.5 mph - N/A   Clear
9:00 PM 39.2 °F 35.9 °F 24.8 °F 56% 30.38 in 9.0 mi NE 4.6 mph - N/A   Clear
10:00 PM 35.6 °F - 24.8 °F 65% 30.39 in 9.0 mi Calm Calm - N/A   Clear
11:00 PM 35 °F - 24 °F 51% 30.40 in 10 mi NNE 3.5 mph - -  
11:00 PM 35.6 °F 32.8 °F 23.0 °F 60% 30.40 in 9.0 mi NE 3.5 mph - N/A   Clear